If you wish to contribute or participate in the discussions about articles you are invited to join SKYbrary as a registered user

 Actions

Alfonso Bonilla Aragón International Airport

From SKYbrary Wiki

SKCL
Airport
ICAO: SKCL – IATA: CLO
Summary
Name Alfonso Bonilla Aragón International Airport
Region South America and Caribbean
Territory Colombia CO.gif
Location Palmira, Valle del Cauca Department
Serving Cali
Elevation 963.778 m
3,162 ft963.778 m
Coordinates 3° 32' 38.26" N, 76° 23' 2.63" W
Runways
Designator Length Width Surface ROPS
1/19 3000 m9,842.52 ft
45 m147.638 ft
ASP yes/yes


METAR
Observation SKCL 171030Z 00000KT 9999 FEW020 18/17 A2993 NOSIG
Station Cali / Alfonso Bonillaaragon
Date/Time 17 June 2019 10:30:00
Wind direction
Wind speed 00 kts
Lowest cloud amount few clouds
Temperature 18°C
Dew point 17°C
Humidity 93%
QNH hPa
Weather condition n/a

Alfonso Bonilla Aragón International Airport also known as Palmaseca International Airport is an airport located in Palmira, Colombia, serving Cali and its suburbs.

Climatology

Tropical savanna climate (Köppen climate classification Aw)

Maps

Terrain

Loading map...

Airport Layout

Loading map...


Accidents & Serious Incidents at or in vicinity of SKCL

None on SKYbrary